Regional Weather Roundup
Issued by NWS

Home | Current Version | Previous Version | Text Only | Print | Product List | Glossary Off
Versions: 1 2 3 4 5 6 7 8 9 10 11 12 13 14 15 16 17 18 19 20 21 22 23 24 25 26 27 28 29 30 31 32 33 34 35 36 37 38 39 40 41 42 43 44 45 46 47 48 49 50

000
ASUS43 KLSX 160207
RWRMO

WEATHER SUMMARY FOR MISSOURI
NATIONAL WEATHER SERVICE SPRINGFIELD MO
800 PM CST FRI DEC 15 2017

NOTE: "FAIR" INDICATES FEW OR NO CLOUDS BELOW 12,000 FEET WITH NO
       SIGNIFICANT WEATHER AND/OR OBSTRUCTIONS TO VISIBILITY.
       CURRENT SKY AND/OR WEATHER CONDITIONS ARE NOT AVAILABLE FOR
       CHILLICOTHE AND FARMINGTON.

MOZ001>031-035>038-043-044-053-054-160300-
...NORTHERN AND WESTERN MISSOURI...

CITY           SKY/WX    TMP DP  RH WIND       PRES   REMARKS
KANSAS CTY INT CLEAR     41  24  51 SW17G26   29.93F
KANSAS C DTWN  CLEAR     44  24  45 SW16G25   29.95F
LEE`S SUMMIT   CLEAR     41  24  51 SW20      29.95F
ST JOSEPH      CLEAR     41  26  55 SW16      29.91F
CHILLICOTHE      N/A     37  21  52 S7        29.95F
KIRKSVILLE     CLOUDY    36  26  67 SW12      29.94F WCI  28

$$
MOZ066>068-077>081-088>096-101>105-160300-
...SOUTHWEST MISSOURI...

CITY           SKY/WX    TMP DP  RH WIND       PRES   REMARKS
SPRINGFIELD    CLEAR     34  24  67 SW8       30.07R WCI  27
JOPLIN         CLEAR     38  26  62 SW9       30.09R
BRANSON        CLEAR     37  25  60 SW6       30.10F

$$
MOZ032>034-039>042-045>050-055>058-069>072-160300-
...CENTRAL MISSOURI...

CITY           SKY/WX    TMP DP  RH WIND       PRES   REMARKS
COLUMBIA       CLEAR     33  25  72 S10       30.02F WCI  25
JEFFERSON CITY CLEAR     37  25  61 SE3       30.05S
ROLLA          CLEAR     30  24  78 SW8       30.06S WCI  22
SEDALIA        CLEAR     38  27  64 S10       30.01F
WHITEMAN AFB   CLEAR     34  23  64 SW13      29.95F WCI  25
WARRENSBURG    CLEAR     36  23  60 S12       29.99F WCI  27
OSAGE BEACH    CLEAR     35  26  69 S8        30.07S WCI  29

$$
MOZ051-052-059>065-160300-
...EAST CENTRAL MISSOURI...

CITY           SKY/WX    TMP DP  RH WIND       PRES   REMARKS
ST LOUIS INTL  CLEAR     36  23  59 SW6       30.07R
SPIRIT OF STL  CLEAR     32  22  66 CALM      30.06S
ST CHARLES     CLOUDY    34  20  56 SW7       30.06S WCI  28

$$
MOZ072>076-082>087-097>100-106>115-160300-
...SOUTH CENTRAL AND SOUTHEAST MISSOURI...

CITY           SKY/WX    TMP DP  RH WIND       PRES   REMARKS
CAPE GIRARDEAU CLEAR     34  26  72 CALM      30.12R
FARMINGTON     CLEAR     29  24  82 S3        30.08F
POPLAR BLUFF   CLEAR     38  29  70 S5        30.13R
WEST PLAINS    CLEAR     33  24  69 SW3       30.10S

$$



USA.gov is the U.S. government's official web portal to all federal, state and local government web resources and services.